�������l�o���
Date,Time,MP-1(��Sv/h),MP-2(��Sv/h),MP-3(��Sv/h),MP-4(��Sv/h),MP-5(��Sv/h),MP-6(��Sv/h),MP-7(��Sv/h),MP-8(��Sv/h),����,����(m/s),���J
2014/03/13,00:00,2.5,4.5,5.0,4.5,4.7,2.0,2.5,2.8,�k�k��,1.8,��
2014/03/13,00:10,2.5,4.5,5.0,4.5,4.7,2.0,2.5,2.8,�k�k��,1.5,��
2014/03/13,00:20,2.5,4.5,5.0,4.5,4.7,2.0,2.5,2.8,�k��,1.4,��
2014/03/13,00:30,2.5,4.5,5.0,4.5,4.7,2.1,2.5,2.8,�k�k��,0.9,��
2014/03/13,00:40,2.5,4.5,5.0,4.5,4.7,2.0,2.5,2.8,�k�k��,0.7,��
2014/03/13,00:50,2.5,4.5,5.0,4.5,4.7,2.0,2.5,2.8,�k��,0.9,��
2014/03/13,01:00,2.5,4.5,5.0,4.5,4.7,2.0,2.5,2.8,�k�k��,0.5,��
2014/03/13,01:10,2.5,4.5,5.0,4.5,4.7,2.0,2.5,2.8,��,0.8,��
2014/03/13,01:20,2.5,4.5,5.0,4.5,4.7,2.0,2.5,2.8,-,CALM,��
2014/03/13,01:30,2.5,4.5,5.0,4.5,4.7,2.0,2.5,2.8,��,0.7,��
2014/03/13,01:40,2.5,4.5,5.0,4.5,4.7,2.0,2.5,2.8,���쐼,0.9,��
2014/03/13,01:50,2.5,4.5,5.0,4.5,4.7,2.0,2.5,2.8,��,0.7,��
2014/03/13,02:00,2.5,4.4,5.0,4.5,4.7,2.0,2.5,2.8,���쐼,0.7,��
2014/03/13,02:10,2.5,4.5,5.0,4.5,4.7,2.0,2.5,2.8,��,0.8,��
2014/03/13,02:20,2.5,4.5,5.0,4.5,4.7,2.0,2.5,2.8,���쐼,0.7,��
2014/03/13,02:30,2.5,4.5,5.0,4.5,4.7,2.0,2.5,2.8,���쐼,0.6,��
2014/03/13,02:40,2.5,4.5,5.0,4.5,4.7,2.0,2.5,2.8,�쐼,0.6,��
2014/03/13,02:50,2.5,4.5,5.0,4.5,4.7,2.0,2.5,2.8,�쐼,0.9,��
2014/03/13,03:00,2.5,4.5,5.0,4.5,4.7,2.0,2.5,2.8,��,1.6,��
2014/03/13,03:10,2.5,4.5,5.0,4.5,4.7,2.0,2.5,2.8,��쐼,1.9,��
2014/03/13,03:20,2.5,4.5,5.0,4.5,4.7,2.1,2.5,2.8,��쐼,1.7,��
2014/03/13,03:30,2.5,4.5,5.0,4.5,4.7,2.0,2.5,2.8,��쐼,2.7,��
2014/03/13,03:40,2.5,4.5,5.0,4.5,4.7,2.0,2.5,2.8,��,2.5,��
2014/03/13,03:50,2.5,4.5,5.0,4.5,4.7,2.0,2.5,2.8,��,2.5,��
2014/03/13,04:00,2.5,4.5,5.0,4.5,4.7,2.0,2.5,2.8,��,2.9,��
2014/03/13,04:10,2.5,4.5,5.0,4.5,4.7,2.0,2.5,2.8,��,2.9,��
2014/03/13,04:20,2.5,4.5,5.0,4.5,4.7,2.1,2.5,2.8,��,2.3,��
2014/03/13,04:30,2.5,4.4,5.0,4.5,4.7,2.1,2.5,2.8,��,3.0,��
2014/03/13,04:40,2.5,4.5,5.0,4.5,4.7,2.0,2.5,2.8,��,2.4,��
2014/03/13,04:50,2.5,4.4,5.0,4.5,4.7,2.1,2.5,2.8,��,3.1,��
2014/03/13,05:00,2.5,4.5,5.0,4.5,4.7,2.0,2.5,2.8,��,3.8,��
2014/03/13,05:10,2.5,4.5,5.0,4.5,4.7,2.0,2.5,2.8,��,3.8,��
2014/03/13,05:20,2.5,4.5,5.0,4.5,4.7,2.0,2.5,2.8,��,4.6,��
2014/03/13,05:30,2.5,4.5,5.0,4.5,4.7,2.0,2.5,2.8,��,4.0,��
2014/03/13,05:40,2.5,4.5,5.0,4.5,4.7,2.1,2.5,2.8,��,4.3,��
2014/03/13,05:50,2.5,4.5,5.0,4.5,4.7,2.1,2.5,2.8,��쐼,3.3,��
2014/03/13,06:00,2.5,4.5,5.0,4.5,4.7,2.0,2.5,2.8,��쐼,3.0,��
2014/03/13,06:10,2.5,4.5,5.0,4.5,4.7,2.1,2.5,2.8,��쐼,2.3,��
2014/03/13,06:20,2.5,4.5,5.0,4.5,4.7,2.0,2.5,2.8,��,3.0,��
2014/03/13,06:30,2.5,4.5,5.0,4.5,4.7,2.1,2.5,2.8,��쓌,3.0,��
2014/03/13,06:40,2.5,4.5,5.0,4.5,4.7,2.0,2.5,2.8,��쓌,2.2,��
2014/03/13,06:50,2.5,4.5,5.0,4.5,4.7,2.0,2.5,2.8,�쓌,1.3,��
2014/03/13,07:00,2.5,4.5,5.0,4.5,4.7,2.0,2.5,2.8,���쓌,1.2,��
2014/03/13,07:10,2.5,4.5,5.0,4.5,4.7,2.0,2.5,2.8,���k��,0.9,��
2014/03/13,07:20,2.5,4.5,5.0,4.5,4.7,2.0,2.5,2.8,���쓌,1.2,��
2014/03/13,07:30,2.5,4.5,5.0,4.5,4.7,2.0,2.5,2.8,��쓌,1.4,��
2014/03/13,07:40,2.5,4.5,5.0,4.5,4.7,2.0,2.5,2.8,��쓌,1.2,��
2014/03/13,07:50,2.5,4.5,5.0,4.5,4.7,2.0,2.5,2.8,��쓌,1.4,��
2014/03/13,08:00,2.5,4.5,5.0,4.5,4.7,2.0,2.5,2.8,��쓌,1.8,��
2014/03/13,08:10,2.5,4.5,5.0,4.5,4.7,2.0,2.5,2.8,��쓌,2.1,��
2014/03/13,08:20,2.5,4.5,5.0,4.5,4.7,2.0,2.5,2.8,��쓌,2.3,��
2014/03/13,08:30,2.5,4.5,5.0,4.5,4.7,2.0,2.5,2.8,��쓌,1.4,��
2014/03/13,08:40,2.5,4.5,5.0,4.5,4.7,2.0,2.5,2.8,�쓌,0.7,��
2014/03/13,08:50,2.5,4.5,5.0,4.5,4.7,2.0,2.5,2.8,-,CALM,��
2014/03/13,09:00,2.5,4.5,5.0,4.5,4.7,2.0,2.5,2.8,�k��,0.6,��
2014/03/13,09:10,2.5,4.5,5.0,4.5,4.7,2.0,2.5,2.8,�k�k��,0.8,��
2014/03/13,09:20,2.5,4.5,5.0,4.5,4.7,2.0,2.5,2.8,�k�k��,1.5,��
2014/03/13,09:30,2.5,4.5,5.0,4.5,4.7,2.0,2.5,2.8,�k�k��,2.0,��
2014/03/13,09:40,2.5,4.5,5.0,4.5,4.7,2.0,2.5,2.8,�k�k��,2.3,��
2014/03/13,09:50,2.5,-,5.0,4.5,4.7,2.0,2.5,2.8,�k,2.2,��
2014/03/13,10:00,2.5,-,5.0,4.5,4.7,2.0,2.5,2.8,�k,2.4,��
2014/03/13,10:10,2.5,-,5.0,4.5,4.7,2.0,2.5,2.8,�k,2.9,�L
2014/03/13,10:20,2.5,-,5.0,4.5,4.7,2.0,2.5,2.8,�k,3.1,�L
2014/03/13,10:30,2.5,-,5.0,4.5,4.7,2.0,2.5,2.8,�k,3.5,�L
2014/03/13,10:40,2.5,-,5.0,4.5,4.7,2.0,2.5,2.8,�k,4.1,�L
2014/03/13,10:50,2.5,-,5.0,4.4,4.7,2.0,2.5,2.8,�k,4.1,�L
2014/03/13,11:00,2.5,-,4.9,4.4,4.7,2.0,2.5,2.8,�k,4.8,�L
2014/03/13,11:10,2.4,-,4.9,4.4,4.6,2.0,2.5,2.8,�k,4.9,�L
2014/03/13,11:20,2.4,-,4.9,4.4,4.6,2.0,2.5,2.8,�k,5.0,�L
2014/03/13,11:30,2.4,-,4.9,4.4,4.6,2.0,2.5,2.8,�k,5.1,�L
2014/03/13,11:40,2.4,-,4.9,4.4,4.6,2.0,2.5,2.8,�k�k��,5.4,�L
2014/03/13,11:50,2.4,4.4,4.9,4.4,4.6,2.0,2.5,2.8,�k�k��,5.0,�L
2014/03/13,12:00,2.4,4.3,4.9,4.4,4.6,2.0,2.5,2.8,�k�k��,5.8,�L
2014/03/13,12:10,2.4,4.3,4.9,4.4,4.6,2.0,2.5,2.8,�k�k��,5.7,�L
2014/03/13,12:20,2.4,4.3,4.9,4.4,4.6,2.0,2.5,2.8,�k�k��,6.5,�L
2014/03/13,12:30,2.4,4.3,4.8,4.4,4.6,2.0,2.5,2.8,�k�k��,5.7,�L
2014/03/13,12:40,2.4,4.3,4.8,4.4,4.6,2.0,2.5,2.8,�k�k��,6.2,�L
2014/03/13,12:50,2.4,4.3,4.8,4.4,4.6,2.0,2.5,2.8,�k�k��,5.1,�L
2014/03/13,13:00,2.4,4.3,4.8,4.4,4.6,2.0,2.5,2.8,�k�k��,5.6,�L
2014/03/13,13:10,2.4,4.3,4.8,4.4,4.6,2.0,2.5,2.8,�k�k��,5.3,�L
2014/03/13,13:20,2.4,4.3,4.8,4.3,4.6,2.0,2.5,2.8,�k�k��,5.5,�L
2014/03/13,13:30,2.4,4.3,4.8,4.3,4.6,2.0,2.5,2.8,�k�k��,6.3,�L
2014/03/13,13:40,2.4,4.3,4.8,4.3,4.5,2.0,2.5,2.7,�k�k��,5.7,�L
2014/03/13,13:50,2.4,4.3,4.8,4.3,4.5,2.0,2.5,2.7,�k�k��,6.3,�L
2014/03/13,14:00,2.4,4.3,4.8,4.3,4.5,2.0,2.5,2.7,�k�k��,5.3,�L
2014/03/13,14:10,2.4,4.3,4.8,4.3,4.5,2.0,2.5,2.7,�k�k��,5.5,�L
2014/03/13,14:20,2.4,4.3,4.8,4.3,4.5,2.0,2.5,2.7,�k�k��,5.7,�L
2014/03/13,14:30,2.4,4.3,4.8,4.3,4.5,2.0,2.5,2.7,�k�k��,4.9,�L
2014/03/13,14:40,2.4,4.3,4.8,4.3,4.5,2.0,2.5,2.7,�k�k��,6.0,�L
2014/03/13,14:50,2.4,4.3,4.8,4.3,4.5,2.0,2.5,2.7,�k�k��,6.0,�L
2014/03/13,15:00,2.4,4.3,4.8,4.3,4.5,2.0,2.5,2.7,�k�k��,6.0,�L
2014/03/13,15:10,2.4,4.3,4.8,4.3,4.5,2.0,2.5,2.7,�k�k��,6.3,�L
2014/03/13,15:20,2.4,4.3,4.8,4.3,4.5,2.0,2.5,2.7,�k�k��,6.3,�L
2014/03/13,15:30,2.4,4.3,4.8,4.3,4.5,2.0,2.5,2.7,�k�k��,7.1,�L
2014/03/13,15:40,2.4,4.3,4.8,4.3,4.5,2.0,2.5,2.7,�k�k��,6.7,�L
2014/03/13,15:50,2.4,4.2,4.8,4.3,4.5,2.0,2.5,2.7,�k�k��,7.4,�L
2014/03/13,16:00,2.4,4.2,4.8,4.3,4.5,2.0,2.5,2.7,�k�k��,6.1,�L
2014/03/13,16:10,2.4,4.2,4.8,4.3,4.5,2.0,2.5,2.7,�k�k��,6.8,�L
2014/03/13,16:20,2.4,4.2,4.8,4.3,4.5,2.0,2.5,2.7,�k�k��,7.2,�L
2014/03/13,16:30,2.4,4.2,4.8,4.3,4.5,2.0,2.5,2.7,�k�k��,7.5,�L
2014/03/13,16:40,2.4,4.2,4.7,4.3,4.5,2.0,2.5,2.7,�k�k��,6.8,�L
2014/03/13,16:50,2.4,4.2,4.7,4.3,4.5,2.0,2.5,2.7,�k�k��,7.1,�L
2014/03/13,17:00,2.4,4.2,4.7,4.3,4.5,2.0,2.5,2.7,�k�k��,6.7,�L
2014/03/13,17:10,2.4,4.2,4.7,4.2,4.5,2.0,2.5,2.7,�k�k��,7.4,�L
2014/03/13,17:20,2.4,4.2,4.7,4.2,4.5,2.0,2.5,2.7,�k�k��,6.7,�L
2014/03/13,17:30,2.4,4.2,4.7,4.2,4.5,2.0,2.5,2.7,�k�k��,6.5,�L
2014/03/13,17:40,2.4,4.2,4.7,4.2,4.5,2.0,2.5,2.7,�k�k��,7.2,�L
2014/03/13,17:50,2.4,4.2,4.7,4.2,4.5,2.0,2.5,2.7,�k�k��,6.7,�L
2014/03/13,18:00,2.4,4.2,4.7,4.2,4.4,2.0,2.5,2.7,�k�k��,6.6,�L
2014/03/13,18:10,2.4,4.2,4.7,4.2,4.4,2.0,2.5,2.7,�k�k��,7.7,�L
2014/03/13,18:20,2.4,4.2,4.7,4.2,4.4,2.0,2.5,2.7,�k�k��,7.1,�L
2014/03/13,18:30,2.4,4.2,4.7,4.2,4.4,2.0,2.5,2.7,�k�k��,7.9,�L
2014/03/13,18:40,2.4,4.2,4.7,4.2,4.4,2.0,2.5,2.7,�k�k��,7.1,�L
2014/03/13,18:50,2.4,4.2,4.7,4.2,4.4,2.0,2.5,2.7,�k�k��,7.4,�L
2014/03/13,19:00,2.4,4.2,4.7,4.2,4.4,2.0,2.5,2.7,�k,6.7,�L
2014/03/13,19:10,2.4,4.1,4.7,4.2,4.4,2.0,2.5,2.7,�k,7.5,�L
2014/03/13,19:20,2.4,4.1,4.7,4.2,4.4,2.0,2.5,2.7,�k,7.1,�L
2014/03/13,19:30,2.3,4.1,4.7,4.2,4.4,2.0,2.5,2.7,�k�k��,8.5,�L
2014/03/13,19:40,2.3,4.1,4.6,4.2,4.4,2.0,2.5,2.7,�k,7.5,�L
2014/03/13,19:50,2.3,4.1,4.6,4.2,4.3,2.0,2.5,2.7,�k�k��,8.8,�L
2014/03/13,20:00,2.3,4.1,4.6,4.2,4.3,1.9,2.5,2.7,�k�k��,7.7,�L
2014/03/13,20:10,2.3,4.1,4.6,4.1,4.3,1.9,2.4,2.7,-,CALM,�L
2014/03/13,20:20,2.3,4.0,4.6,4.1,4.3,1.9,2.4,2.7,�k,6.8,�L
2014/03/13,20:30,2.3,4.0,4.6,4.1,4.2,1.9,2.4,2.7,-,CALM,�L
2014/03/13,20:40,2.3,4.0,4.6,4.1,4.2,1.9,2.4,2.7,�k�k��,6.5,�L
2014/03/13,20:50,2.3,4.1,4.6,4.2,4.3,1.9,2.4,2.7,�k,9.9,�L
2014/03/13,21:00,2.4,4.1,4.7,4.2,4.3,1.9,2.4,2.7,�k�k��,9.0,��
2014/03/13,21:10,2.4,4.1,4.7,4.2,4.3,1.9,2.5,2.7,�k�k��,8.5,�L
2014/03/13,21:20,2.4,4.1,4.7,4.2,4.3,1.9,2.5,2.7,�k�k��,9.7,�L
2014/03/13,21:30,2.4,4.1,4.7,4.2,4.3,1.9,2.5,2.7,�k�k��,9.7,�L
2014/03/13,21:40,2.3,4.1,4.6,4.2,4.3,1.9,2.4,2.7,�k�k��,9.0,�L
2014/03/13,21:50,2.3,4.1,4.6,4.2,4.3,1.9,2.4,2.7,�k�k��,9.9,�L
2014/03/13,22:00,2.3,4.1,4.6,4.2,4.3,1.9,2.4,2.7,�k�k��,9.7,�L
2014/03/13,22:10,2.3,4.1,4.6,4.2,4.3,1.9,2.4,2.7,�k�k��,9.9,�L
2014/03/13,22:20,2.3,4.1,4.6,4.2,4.3,1.9,2.4,2.7,�k�k��,10.2,�L
2014/03/13,22:30,2.3,4.1,4.6,4.2,4.3,1.9,2.4,2.7,�k�k��,10.8,�L
2014/03/13,22:40,2.3,4.1,4.6,4.2,4.3,1.9,2.4,2.7,�k�k��,10.8,�L
2014/03/13,22:50,2.3,4.1,4.6,4.2,4.3,1.9,2.4,2.7,�k�k��,11.2,�L
2014/03/13,23:00,2.3,4.1,4.6,4.2,4.3,1.9,2.4,2.7,�k�k��,9.1,�L
2014/03/13,23:10,2.3,4.1,4.6,4.2,4.3,1.9,2.4,2.7,�k�k��,10.4,�L
2014/03/13,23:20,2.3,4.1,4.6,4.2,4.3,1.9,2.4,2.7,�k�k��,7.7,�L
2014/03/13,23:30,2.3,4.1,4.6,4.2,4.3,1.9,2.4,2.7,�k�k��,8.3,�L
2014/03/13,23:40,2.4,4.1,4.6,4.2,4.3,1.9,2.4,2.7,�k�k��,8.5,�L
2014/03/13,23:50,2.4,4.1,4.7,4.2,4.3,1.9,2.4,2.7,�k��,9.6,�L
